I1SXT-13 Weather Reports


time (UTC)temp
F
wind
direction
speed
knots
gust
knots
rain 1hr
in
rain 24hr
in
rain mn
in
humidity
%
barometer
mb
20260506224429 57 0.0 0.0 0.00 0.00 0.00 89 1012.5
20260506223925 57 0.0 0.0 0.00 0.00 0.00 88 1012.2
20260506223428 57 0.0 0.0 0.00 0.00 0.00 88 1013.3
20260506222924 57 0.0 0.0 0.00 0.00 0.00 88 1013.7
20260506222427 57 0.0 0.0 0.00 0.00 0.00 88 1012.7
20260506221929 57 0.0 0.0 0.00 0.00 0.00 88 1013.2
20260506221425 57 0.0 0.0 0.00 0.00 0.00 88 1013.8
20260506220928 57 0.0 0.0 0.00 0.00 0.00 87 1013.2
20260506220424 57 0.0 0.0 0.00 0.00 0.00 86 1013.5
20260506215924 58 0.0 0.0 0.00 0.00 1.35 87 1013.7
20260506215427 57 0.0 0.0 0.00 0.00 1.35 87 1013.3
20260506214930 57 0.0 0.0 0.00 0.00 1.35 87 1013.8
20260506214426 57 0.0 0.0 0.00 0.00 1.35 88 1013.3
20260506213929 57 0.0 0.0 0.00 0.00 1.35 88 1013.8
20260506213425 57 0.0 0.0 0.00 0.00 1.35 88 1013.3
20260506212927 57 0.0 0.0 0.00 0.00 1.35 89 1013.3
20260506212423 58 0.0 0.0 0.00 0.00 1.35 89 1012.7
20260506211926 58 0.0 0.0 0.00 0.00 1.35 89 1012.6
20260506211429 58 0.0 0.0 0.00 0.00 1.35 88 1013.5
20260506210925 59 0.0 0.0 0.00 0.00 1.35 87 1012.4
20260506210428 59 0.0 0.0 0.00 0.00 1.35 86 1013.6
20260506205924 59 0.0 0.0 0.00 0.00 1.35 86 1013.2
20260506205427 59 0.0 0.0 0.00 0.00 1.35 85 1013.4
20260506204930 59 0.0 0.0 0.00 0.00 1.35 86 1012.9
20260506204426 58 0.0 0.0 0.00 0.00 1.35 87 1013.0
20260506203928 58 0.0 0.0 0.00 0.00 1.35 88 1012.3
20260506202423 58 0.0 0.0 0.00 0.00 1.35 89 1012.5
20260506201926 58 0.0 0.0 0.00 0.00 1.35 89 1012.7
20260506201429 59 0.0 0.0 0.00 0.00 1.35 88 1012.2
20260506200925 58 0.0 0.0 0.00 0.00 1.35 88 1012.0
20260506200428 59 0.0 0.0 0.00 0.00 1.35 89 1011.7
20260506195923 59 0.0 0.0 0.00 0.00 1.35 88 1012.6
20260506195426 59 0.0 0.0 0.00 0.00 1.35 89 1012.5
20260506194929 58 0.0 0.0 0.00 0.00 1.35 89 1012.7
20260506194425 58 0.0 0.0 0.00 0.00 1.35 88 1011.8
20260506193928 59 0.0 0.0 0.00 0.00 1.35 88 1011.9
20260506193424 59 0.0 0.0 0.00 0.00 1.35 88 1011.9
20260506192927 59 0.0 0.0 0.00 0.00 1.35 89 1012.0
20260506192430 59 0.0 0.0 0.00 0.00 1.35 88 1011.9
20260506191926 59 0.0 0.0 0.00 0.00 1.35 88 1011.6
20260506191428 59 0.0 0.0 0.00 0.00 1.35 87 1011.4
20260506190925 60 0.0 0.0 0.00 0.00 1.35 86 1011.3
20260506190427 60 0.0 0.0 0.00 0.00 1.35 85 1011.5
20260506185923 60 0.0 0.0 0.00 0.00 1.35 85 1011.3
20260506185426 61 0.0 0.0 0.00 0.00 1.35 82 1011.5
20260506184929 61 0.0 0.0 0.00 0.00 1.35 81 1011.0
20260506184425 60 0.0 0.0 0.00 0.00 1.35 83 1011.4
20260506183928 61 0.0 0.0 0.00 0.00 1.35 82 1011.8
20260506183424 61 0.0 0.0 0.00 0.00 1.35 82 1011.1
20260506182927 60 0.0 0.0 0.00 0.00 1.35 85 1011.2
20260506182429 60 0.0 0.0 0.00 0.00 1.35 84 1011.2
20260506181925 61 0.0 0.0 0.00 0.00 1.35 83 1011.6
20260506180924 61 0.0 0.0 0.00 0.00 1.35 82 1010.8
20260506180427 61 0.0 0.0 0.00 0.00 1.35 80 1011.1
20260506175426 61 0.0 0.0 0.00 0.00 1.35 79 1010.8
20260506174929 61 0.0 0.0 0.00 0.00 1.35 79 1011.5
20260506174425 61 0.0 0.0 0.00 0.00 1.35 78 1011.1
20260506173928 62 0.0 0.0 0.00 0.00 1.35 77 1011.0
20260506173424 62 0.0 0.0 0.00 0.00 1.35 77 1010.2
20260506172926 62 0.0 0.0 0.00 0.00 1.35 77 1011.0
20260506172429 62 0.0 0.0 0.00 0.00 1.35 76 1010.6
20260506171925 62 0.0 0.0 0.00 0.00 1.35 75 1011.6
20260506171428 63 0.0 0.0 0.00 0.00 1.35 76 1010.7
20260506165930 63 0.0 0.0 0.00 0.00 1.35 77 1011.0
20260506165426 63 0.0 0.0 0.00 0.00 1.35 77 1010.7
20260506164929 62 0.0 0.0 0.00 0.00 1.35 76 1011.0
20260506164424 62 0.0 0.0 0.00 0.00 1.35 76 1010.9
20260506163927 63 0.0 0.0 0.00 0.00 1.35 78 1010.9
20260506163423 63 0.0 0.0 0.00 0.00 1.35 78 1011.1
20260506162926 63 0.0 0.0 0.00 0.00 1.35 78 1011.1
20260506162429 63 0.0 0.0 0.00 0.00 1.35 77 1010.7
20260506161925 64 0.0 0.0 0.00 0.00 1.35 76 1010.5
20260506161428 64 0.0 0.0 0.00 0.00 1.35 76 1010.9
20260506160924 65 0.0 0.0 0.00 0.00 1.35 76 1011.3
20260506160427 64 0.0 0.0 0.00 0.00 1.35 79 1011.2
20260506155929 64 0.0 0.0 0.00 0.00 1.35 79 1010.9
20260506155425 64 0.0 0.0 0.00 0.00 1.35 79 1010.5
20260506154928 64 0.0 0.0 0.00 0.00 1.35 78 1010.6
20260506154424 64 0.0 0.0 0.00 0.00 1.35 77 1010.7
20260506153927 64 0.0 0.0 0.00 0.00 1.35 76 1010.8
20260506153430 64 0.0 0.0 0.00 0.00 1.35 79 1010.1
20260506152926 65 0.0 0.0 0.00 0.00 1.35 78 1010.0
20260506152429 64 0.0 0.0 0.00 0.00 1.35 79 1010.1
20260506151925 65 0.0 0.0 0.00 0.00 1.35 77 1010.8
20260506151427 65 0.0 0.0 0.00 0.00 1.35 77 1011.3
20260506150923 65 0.0 0.0 0.00 0.00 1.35 79 1010.9
20260506150426 66 0.0 0.0 0.00 0.00 1.35 74 1010.3
20260506145929 67 0.0 0.0 0.00 0.00 1.35 74 1011.1
20260506145425 67 0.0 0.0 0.00 0.00 1.35 75 1010.5
20260506144928 67 0.0 0.0 0.00 0.00 1.35 74 1010.8
20260506144424 67 0.0 0.0 0.00 0.00 1.32 74 1010.5
20260506143926 68 0.0 0.0 0.00 0.00 1.30 71 1010.5
20260506143429 68 0.0 0.0 0.00 0.00 1.30 72 1010.0
20260506142428 68 0.0 0.0 0.00 0.00 1.30 72 1009.9
20260506141924 69 0.0 0.0 0.00 0.00 1.30 70 1010.0
20260506141427 69 0.0 0.0 0.00 0.00 1.30 71 1009.4
20260506140929 69 0.0 0.0 0.00 0.00 1.30 72 1009.8
20260506140425 68 0.0 0.0 0.00 0.00 1.30 72 1009.8
20260506135928 69 0.0 0.0 0.00 0.00 1.30 74 1010.3
20260506135425 69 0.0 0.0 0.00 0.00 1.30 73 1010.4
20260506134927 69 0.0 0.0 0.00 0.00 1.30 71 1010.3
20260506134430 70 0.0 0.0 0.00 0.00 1.30 73 1010.5
20260506133926 69 0.0 0.0 0.00 0.00 1.30 75 1010.4
20260506133429 69 0.0 0.0 0.00 0.00 1.30 75 1010.4
20260506132925 68 0.0 0.0 0.00 0.00 1.30 76 1010.2
20260506132427 67 0.0 0.0 0.00 0.00 1.30 78 1009.9
20260506131923 67 0.0 0.0 0.00 0.00 1.30 78 1010.0
20260506131426 67 0.0 0.0 0.00 0.00 1.30 80 1009.7
20260506130929 66 0.0 0.0 0.00 0.00 1.30 81 1010.0
20260506130425 66 0.0 0.0 0.00 0.00 1.30 81 1010.1
20260506125928 65 0.0 0.0 0.00 0.00 1.30 82 1010.2
20260506125424 67 0.0 0.0 0.00 0.00 1.30 78 1009.8
20260506124926 65 0.0 0.0 0.00 0.00 1.30 81 1009.7
20260506124429 66 0.0 0.0 0.00 0.00 1.30 81 1009.9
20260506123925 66 0.0 0.0 0.00 0.00 1.30 80 1010.0
20260506123428 66 0.0 0.0 0.00 0.00 1.30 80 1009.8
20260506122924 66 0.0 0.0 0.00 0.00 1.30 79 1009.9
20260506122427 66 0.0 0.0 0.00 0.00 1.30 80 1009.9
20260506121426 65 0.0 0.0 0.00 0.00 1.30 80 1010.0
20260506120928 65 0.0 0.0 0.00 0.00 1.30 79 1009.7
20260506120424 65 0.0 0.0 0.00 0.00 1.30 79 1010.0
20260506115927 65 0.0 0.0 0.00 0.00 1.30 77 1009.9
20260506115423 66 0.0 0.0 0.00 0.00 1.30 78 1009.9
20260506114926 66 0.0 0.0 0.00 0.00 1.30 76 1010.4
20260506114429 67 0.0 0.0 0.00 0.00 1.30 79 1009.4
20260506113925 67 0.0 0.0 0.00 0.00 1.30 79 1009.8
20260506112923 66 0.0 0.0 0.00 0.00 1.30 82 1009.7
20260506112426 66 0.0 0.0 0.00 0.00 1.30 79 1010.0
20260506111929 66 0.0 0.0 0.00 0.00 1.30 78 1010.1
20260506111425 66 0.0 0.0 0.00 0.00 1.30 79 1010.0
20260506110928 65 0.0 0.0 0.00 0.00 1.30 80 1010.6
20260506110424 64 0.0 0.0 0.00 0.00 1.30 83 1009.8
20260506105926 63 0.0 0.0 0.00 0.00 1.30 85 1010.4
20260506105429 63 0.0 0.0 0.00 0.00 1.30 85 1010.5
20260506104925 63 0.0 0.0 0.00 0.00 1.30 85 1009.8
20260506104428 63 0.0 0.0 0.00 0.00 1.30 85 1009.7
20260506103427 63 0.0 0.0 0.00 0.00 1.30 84 1009.7
20260506102930 63 0.0 0.0 0.00 0.00 1.30 85 1010.2
20260506102426 63 0.0 0.0 0.00 0.00 1.30 86 1009.7
20260506101929 64 0.0 0.0 0.00 0.00 1.30 86 1010.3
20260506101424 64 0.0 0.0 0.00 0.00 1.30 85 1010.1
20260506100927 65 0.0 0.0 0.00 0.00 1.30 85 1009.9
20260506100430 65 0.0 0.0 0.00 0.00 1.30 86 1009.7
20260506095926 64 0.0 0.0 0.00 0.00 1.30 88 1009.6
20260506095429 63 0.0 0.0 0.00 0.00 1.30 89 1010.0
20260506094925 63 0.0 0.0 0.00 0.00 1.30 92 1009.9
20260506093923 63 0.0 0.0 0.00 0.00 1.30 91 1009.4
20260506093426 63 0.0 0.0 0.00 0.00 1.30 91 1009.3
20260506092929 63 0.0 0.0 0.00 0.00 1.30 91 1009.8
20260506091928 63 0.0 0.0 0.00 0.00 1.29 92 1009.9
20260506091423 63 0.0 0.0 0.00 0.00 1.26 92 1009.7
20260506090925 63 0.0 0.0 0.00 0.00 1.20 92 1008.9
20260506090428 63 0.0 0.0 0.00 0.00 1.12 93 1009.9
20260506085930 63 0.0 0.0 0.00 0.00 1.03 93 1009.3
20260506084927 63 0.0 0.0 0.00 0.00 0.83 93 1009.5
20260506084429 63 0.0 0.0 0.00 0.00 0.73 94 1009.9
20260506083924 62 0.0 0.0 0.00 0.00 0.62 94 1009.3
20260506083426 61 0.0 0.0 0.00 0.00 0.51 93 1009.2
20260506081924 63 0.0 0.0 0.00 0.00 0.08 92 1009.0
20260506081427 63 0.0 0.0 0.00 0.00 0.08 93 1009.4
20260506080929 62 0.0 0.0 0.00 0.00 0.00 92 1008.1
20260506080425 63 0.0 0.0 0.00 0.00 0.00 92 1008.1
20260506073427 62 0.0 0.0 0.00 0.00 0.04 93 1008.2
20260506072923 63 0.0 0.0 0.00 0.00 0.04 94 1008.5
20260506072426 62 0.0 0.0 0.00 0.00 0.04 94 1008.1
20260506071929 62 0.0 0.0 0.00 0.00 0.04 95 1008.9
20260506071425 62 0.0 0.0 0.00 0.00 0.04 95 1008.5
20260506070928 62 0.0 0.0 0.00 0.00 0.04 94 1007.8
20260506070424 62 0.0 0.0 0.00 0.00 0.04 94 1008.1
20260506062426 61 0.0 0.0 0.00 0.00 0.04 95 1007.9
20260506061928 60 0.0 0.0 0.00 0.00 0.04 96 1008.3
20260506061424 59 0.0 0.0 0.00 0.00 0.04 96 1007.6
20260506060927 59 0.0 0.0 0.00 0.00 0.04 96 1008.0
20260506050927 57 0.0 0.0 0.00 0.00 0.04 96 1008.1
20260506050430 58 0.0 0.0 0.00 0.00 0.04 97 1007.6
20260506044924 57 0.0 0.0 0.00 0.00 0.03 96 1008.5
20260506044427 57 0.0 0.0 0.00 0.00 0.03 96 1008.5
20260506043923 57 0.0 0.0 0.00 0.00 0.03 96 1007.9
20260506043426 57 0.0 0.0 0.00 0.00 0.03 95 1008.3
20260506042929 57 0.0 0.0 0.00 0.00 0.03 96 1007.9
20260506042425 57 0.0 0.0 0.00 0.00 0.03 96 1008.4
20260506041928 57 0.0 0.0 0.00 0.00 0.03 95 1008.6
20260506041424 57 0.0 0.0 0.00 0.00 0.03 95 1008.4
20260506040927 57 0.0 0.0 0.00 0.00 0.03 95 1009.1
20260506040429 57 0.0 0.0 0.00 0.00 0.03 95 1008.3
20260506035925 57 0.0 0.0 0.00 0.00 0.03 96 1008.0
20260506035428 57 0.0 0.0 0.00 0.00 0.03 96 1008.3
20260506034924 57 0.0 0.0 0.00 0.00 0.03 96 1008.6
20260506033426 56 0.0 0.0 0.00 0.00 0.03 96 1009.4
20260506032929 57 0.0 0.0 0.00 0.00 0.03 96 1008.2
20260506032425 57 0.0 0.0 0.00 0.00 0.03 96 1008.7
20260506031927 57 0.0 0.0 0.00 0.00 0.03 96 1009.8
20260506030926 57 0.0 0.0 0.00 0.00 0.03 96 1009.0
20260506030429 58 0.0 0.0 0.00 0.00 0.03 96 1009.1
20260506025925 57 0.0 0.0 0.00 0.00 0.03 95 1008.7
20260506025428 57 0.0 0.0 0.00 0.00 0.03 95 1009.2
20260506024924 57 0.0 0.0 0.00 0.00 0.03 94 1010.0
20260506024427 58 0.0 0.0 0.00 0.00 0.03 94 1009.0
20260506023425 58 0.0 0.0 0.00 0.00 0.03 92 1008.3
20260506022928 58 0.0 0.0 0.00 0.00 0.03 93 1008.5
20260506022424 58 0.0 0.0 0.00 0.00 0.03 93 1008.3
20260506021927 57 0.0 0.0 0.00 0.00 0.03 94 1008.7
20260506021423 57 0.0 0.0 0.00 0.00 0.02 94 1008.8
20260506020926 57 0.0 0.0 0.00 0.00 0.02 94 1009.4
20260506020429 57 0.0 0.0 0.00 0.00 0.02 94 1009.0
20260506015925 57 0.0 0.0 0.00 0.00 0.02 94 1009.5
20260506015428 57 0.0 0.0 0.00 0.00 0.02 94 1008.9
20260506014924 57 0.0 0.0 0.00 0.00 0.02 94 1009.2
20260506014426 57 0.0 0.0 0.00 0.00 0.02 94 1009.8
20260506013929 57 0.0 0.0 0.00 0.00 0.02 94 1009.2
20260506013425 57 0.0 0.0 0.00 0.00 0.02 93 1009.6
20260506012928 57 0.0 0.0 0.00 0.00 0.02 94 1010.1
20260506012424 57 0.0 0.0 0.00 0.00 0.02 94 1010.4
20260506011927 57 0.0 0.0 0.00 0.00 0.02 94 1010.0
20260506011430 57 0.0 0.0 0.00 0.00 0.02 94 1010.2
20260506010926 57 0.0 0.0 0.00 0.00 0.02 94 1010.6
20260506005925 58 0.0 0.0 0.00 0.00 0.02 94 1010.5
20260506005428 58 0.0 0.0 0.00 0.00 0.01 94 1010.1
20260506004924 58 0.0 0.0 0.00 0.00 0.01 93 1010.4
20260506004426 58 0.0 0.0 0.00 0.00 0.01 93 1011.1
20260506003929 58 0.0 0.0 0.00 0.00 0.01 93 1011.4
20260506003425 58 0.0 0.0 0.00 0.00 0.01 93 1011.6
20260506002928 58 0.0 0.0 0.00 0.00 0.01 93 1011.2
20260506002424 58 0.0 0.0 0.00 0.00 0.01 94 1010.5
20260506001927 58 0.0 0.0 0.00 0.00 0.01 93 1010.9
20260506001430 58 0.0 0.0 0.00 0.00 0.01 93 1011.1
20260506000926 58 0.0 0.0 0.00 0.00 0.00 92 1011.5
20260506000431 57 0.0 0.0 0.00 0.00 0.00 92 1011.2
20260505235924 58 0.0 0.0 0.00 0.00 0.00 91 1011.6
20260505235427 58 0.0 0.0 0.00 0.00 0.00 90 1010.6
20260505234923 59 0.0 0.0 0.00 0.00 0.00 85 1011.6
20260505234426 59 0.0 0.0 0.00 0.00 0.00 84 1011.4
20260505233425 59 0.0 0.0 0.00 0.00 0.00 82 1011.3
20260505232928 60 0.0 0.0 0.00 0.00 0.00 81 1011.5
20260505232424 60 0.0 0.0 0.00 0.00 0.00 81 1011.9
20260505231429 60 0.0 0.0 0.00 0.00 0.00 82 1011.5
20260505230428 59 0.0 0.0 0.00 0.00 0.00 83 1011.7
20260505225924 59 0.0 0.0 0.00 0.00 0.00 83 1012.0
20260505225427 59 0.0 0.0 0.00 0.00 0.00 85 1012.0
20260505224930 59 0.0 0.0 0.00 0.00 0.00 85 1011.8